Showing default

NIMBUS 4, 4362

Orbit data source: Space-Track

NIMBUS 4, 4362 is a payload satellite owned by GSFC (US) in SSO that was launched on Wed, 08 Apr 1970 UTC via a THORAD SLV-2G AGENA D launch vehicle from the Air Force Western Test Range (AFWTR). Payload-class satellites include a variety of spacecraft equipped with specific instruments for various scientific and technological missions. These include communications satellites like Starlink; space stations such as the ISS; scientific satellites like the Hubble; Earth observation satellites from companies like Planet Labs, Umbra, and HawkEye 360; GPS; miniature CubeSats for education and research; and military/defense satellites.

Loading next visibility...
Identifier
4362, 1970-025A
Orbit
SSO
Country
Flag of USUS
Related business
Manufacturer
GE/MSVD
Mission
Non-operational spacecraft
Bus & Motor
NIMBUS, Unknown motor
Mass
619 kg wet, 619 kg dry
Launch date (UTC)
1970-04-08 (56 years ago)
Launch vehicle
THORAD SLV-2G AGENA D
Launch site
Air Force Western Test Range (AFWTR)
Object type
Payload
Rocket body
Debris
Shape & HBR
Unknown
Radar Cross Section
Large (>1 m²)

Expand to show TLE details & history
Last TLE update: 1 day ago

TLE from 1 day ago
0 NIMBUS 4
1 04362U 70025A   25287.51387311 -.00000003  00000-0  70369-4 0  9995
2 04362  99.9520 206.0158 0006825 233.9650 300.3950 13.44738101723826
Epoch: 2025-10-14T12:19Z
TLE epoch observation values (Epoch: 2025-10-14T12:19:58.636Z)
Latitude
5.543°
Longitude
178.69095°
Altitude
1,091.326 km
Speed
7.308 km/s
True Right ascension
01h 47m 56s
True Declination
5° 30' 41"
Sunlit
Object was in full shadow at epoch
Visualization orbit readout
Latitude
Unknown
Longitude
Unknown
Altitude
Unknown
Speed
Unknown
Apparent Right ascension
Unknown
Apparent Declination
Unknown
Sunlit
N/A
Visualization observer readout
Local Sidereal Time
13:20:55
Azimuth
Unknown
Elevation
Unknown
Doppler factor
Unknown
Orbital elements
Apogee altitude
1,094.099 km
Perigee altitude
1,083.906 km
Semi-major axis
7,467.14 km
Eccentricity
0.00068
Inclination
99.952°
RAAN
206.0158°
Arg. of periapsis
233.965°
True anomaly
300.32751°
Mean anomaly
300.395°
Eccentric anomaly
300.36126°
Mean motion
3.36366 °/min
Orbital period
107.03 mins
BSTAR
0.000070369

Documentation

Showing up to 5 results
|